Weather Roundup
Issued by NWS Springfield, MO

Home | Current Version | Previous Version | Text Only | Print | Product List | Glossary On
Versions: 1 2 3 4 5 6 7 8 9 10 11 12 13 14 15 16 17 18 19 20 21 22 23 24 25 26 27 28 29 30 31 32 33 34 35 36 37 38 39 40 41 42 43 44 45 46 47 48 49 50
000
NZUS99 KSGF 270507
HRRSGF

HOURLY WEATHER
NATIONAL WEATHER SERVICE SPRINGFIELD MO
1100 PM CST MON JAN 26 2015

......SGF CWA......

CITY           SKY/WX    TMP DP  RH WIND       PRES   REMARKS
SPRINGFIELD    CLEAR     45  34  65 NW8       29.99S
JOPLIN         CLEAR     48  35  60 NW5       30.03R
WEST PLAINS    CLEAR     45  34  65 W7        29.96R
ROLLA          CLEAR     42  33  70 W10       29.92F
OSAGE BEACH    CLEAR     46  32  57 NW6       29.97S
BRANSON        CLEAR     46  34  61 W5        30.00S

......SURROUNDING SGF CWA......

CITY           SKY/WX    TMP DP  RH WIND       PRES   REMARKS
CHANUTE        CLEAR     38  33  82 N3        30.03F
PARSONS        CLEAR     47  35  63 N7        30.04S
COFFEYVILLE    CLEAR     43  34  70 N5        30.03S
EMPORIA        CLEAR     46  31  55 W6        30.04R
GROVE OK       CLEAR     37  34  87 CALM      30.04R
ROGERS AR      CLEAR     47  34  60 W5        30.03S
SILOAM SPRINGS CLEAR     46  30  53 CALM      30.04R
HARRISON AR    CLEAR     50  35  56 W8        29.99F
NEAR YELLVILLE CLEAR     46  30  53 CALM      29.97S

......KANSAS AND MISSOURI......

CITY           SKY/WX    TMP DP  RH WIND       PRES   REMARKS
KANSAS CTY INT CLEAR     43  32  65 NW8       30.01S
DOWNTOWN KC    CLEAR     42  33  70 SW5       30.01S
COLUMBIA       CLEAR     41  34  76 NW10      29.95S
SEDALIA        CLEAR     44  33  65 NW9       29.99S
ST JOSEPH      CLEAR     32  29  88 CALM      30.03R
ST LOUIS       CLOUDY    38  30  73 W3        29.91F
SPIRIT OF STL  CLOUDY    33  30  88 SW3       29.91S
KIRKSVILLE     CLEAR     40  34  79 N8        29.95R WCI  34
WICHITA        CLEAR     43  32  65 NW6       30.06R
TOPEKA         CLEAR     36  28  73 CALM      30.05R
OLATHE         CLEAR     44  31  60 NW5       30.01S

......TENNESSEE......

CITY           SKY/WX    TMP DP  RH WIND       PRES   REMARKS
MEMPHIS        CLEAR     42  33  70 SW5       29.95S
NASHVILLE      CLOUDY    34  31  88 SE5       29.96F WCI  30

......ARKANSAS.......

CITY           SKY/WX    TMP DP  RH WIND       PRES   REMARKS
FAYETTEVILLE   CLEAR     34  31  88 S6        30.03R WCI  29
FT SMITH       CLEAR     46  35  65 SW3       30.02R
LITTLE ROCK    CLEAR     47  34  60 W8        30.01S

......OKLAHOMA.......

CITY           SKY/WX    TMP DP  RH WIND       PRES   REMARKS
TULSA          CLEAR     50  36  58 CALM      30.03R
PONCA CITY     CLEAR     42  32  67 NE3       30.06S
MCALESTER      PTCLDY    42  35  76 CALM      30.04F
OKLAHOMA CITY  CLEAR     54  34  46 NW6       30.08R

......IOWA............

CITY           SKY/WX    TMP DP  RH WIND       PRES   REMARKS
DES MOINES     PTCLDY    37  32  82 NW7       29.99R WCI  32
QUAD CITIES    CLOUDY    32  29  88 CALM      29.89R FOG

......ILLINOIS........

CITY           SKY/WX    TMP DP  RH WIND       PRES   REMARKS
QUINCY         CLOUDY    39  34  82 NW9       29.91R WCI  33
CHICAGO        LGT SNOW  26  24  92 SE5       29.90S FOG     WCI  20



USA.gov is the U.S. government's official web portal to all federal, state and local government web resources and services.